Location: North Evanston
(42.0634°N, 87.6976°W)
Time: 21:09:38
(UTC+00:00)

Transit 2A - Pass Details

Date: 18 May 2026
Orbit: 595 x 948 km, 66.7° (Epoch: 9 June)

Event Time Altitude Azimuth Distance (km) Brightness Sun altitude
Rises 07:17:27 0° 310° (NW) 3,070 9.3 -24.9°
Enters shadow 07:20:21 - 290° (WNW) 2,245 8.4 -24.7°
Reaches altitude 10° 07:21:13 10° 280° (W) 2,070 - -24.6°
Maximum altitude 07:23:02 12° 257° (WSW) 1,891 - -24.5°
Drops below altitude 10° 07:24:48 10° 234° (SW) 2,003 - -24.4°
Sets 07:28:19 0° 203° (SSW) 2,855 - -24.1°
